TimeEDT,TemperatureF,Dew PointF,Humidity,Sea Level PressureIn,VisibilityMPH,Wind Direction,Wind SpeedMPH,Gust SpeedMPH,PrecipitationIn,Events,Conditions,WindDirDegrees,DateUTC
12:54 AM,45.0,43.0,93,29.88,-9999.0,North,-9999.0,-,N/A,,Unknown,0,2011-10-02 04:54:00
1:54 AM,45.0,44.1,97,29.88,-9999.0,North,-9999.0,-,N/A,,Unknown,0,2011-10-02 05:54:00
2:54 AM,45.0,44.1,97,29.88,-9999.0,North,-9999.0,-,N/A,,Unknown,0,2011-10-02 06:54:00
3:54 AM,45.0,44.1,97,29.88,-9999.0,North,-9999.0,-,N/A,,Unknown,0,2011-10-02 07:54:00
4:54 AM,44.1,44.1,100,29.90,-9999.0,North,-9999.0,-,N/A,,Unknown,0,2011-10-02 08:54:00
5:54 AM,45.0,44.1,97,29.91,-9999.0,North,-9999.0,-,N/A,,Unknown,0,2011-10-02 09:54:00
6:54 AM,45.0,45.0,100,29.92,-9999.0,North,-9999.0,-,N/A,,Unknown,0,2011-10-02 10:54:00
7:54 AM,46.9,46.0,97,29.93,-9999.0,North,-9999.0,-,N/A,,Unknown,0,2011-10-02 11:54:00
8:54 AM,48.9,48.0,97,29.92,-9999.0,North,-9999.0,-,N/A,,Unknown,0,2011-10-02 12:54:00
9:54 AM,52.0,50.0,93,29.92,-9999.0,North,-9999.0,-,N/A,,Unknown,0,2011-10-02 13:54:00
10:54 AM,53.1,52.0,96,29.92,-9999.0,North,-9999.0,-,0.06,,Unknown,0,2011-10-02 14:54:00
11:54 AM,55.0,54.0,96,29.91,-9999.0,North,-9999.0,-,0.07,,Unknown,0,2011-10-02 15:54:00
12:54 PM,55.9,55.9,100,29.89,-9999.0,North,-9999.0,-,0.10,,Unknown,0,2011-10-02 16:54:00
1:54 PM,57.0,55.9,96,29.87,-9999.0,North,-9999.0,-,0.02,,Unknown,0,2011-10-02 17:54:00
2:54 PM,55.9,55.0,97,29.86,-9999.0,North,-9999.0,-,0.25,,Unknown,0,2011-10-02 18:54:00
3:54 PM,55.9,55.9,100,29.87,-9999.0,North,-9999.0,-,0.15,,Unknown,0,2011-10-02 19:54:00
4:54 PM,55.9,55.0,97,29.86,-9999.0,North,-9999.0,-,0.08,,Unknown,0,2011-10-02 20:54:00
5:54 PM,55.0,55.0,100,29.88,-9999.0,North,-9999.0,-,0.01,,Unknown,0,2011-10-02 21:54:00
6:54 PM,54.0,54.0,100,29.89,-9999.0,North,-9999.0,-,0.08,,Unknown,0,2011-10-02 22:54:00
7:54 PM,54.0,53.1,97,29.91,-9999.0,North,-9999.0,-,0.01,,Unknown,0,2011-10-02 23:54:00
8:54 PM,53.1,52.0,96,29.91,-9999.0,North,-9999.0,-,N/A,,Unknown,0,2011-10-03 00:54:00
9:54 PM,53.1,52.0,96,29.91,-9999.0,North,-9999.0,-,N/A,,Unknown,0,2011-10-03 01:54:00
10:54 PM,54.0,53.1,97,29.91,-9999.0,North,-9999.0,-,N/A,,Unknown,0,2011-10-03 02:54:00
11:54 PM,54.0,53.1,97,29.91,-9999.0,North,-9999.0,-,N/A,,Unknown,0,2011-10-03 03:54:00